Find JD2

NORAD ID: 14729 Int'l Des: 1984-012 Owner: NRO/NRL Country: US operational
LEO

Live Position

Loading 3D Globe...

About JD2

Description loading...

Upcoming Passes

Passes for default location (London). Set your location on the main map for personalized predictions.

Altitude History

Loading altitude history...

Two-Line Element Set

1 14729U 84012D 26104.62110672 .00002405 00000-0 29440-3 0 9999
2 14729 63.3059 210.0868 0749251 127.3987 239.7705 13.75793930335169
Epoch: Apr 14, 2026 • Age: 13 hours

Current Status

Altitude 1371.9 km
Velocity 6.99 km/s
Sub-Earth Point -62.52°S, 165.55°W
Launch Date Feb 5, 1984
Age 42.1 years
Type other

Technical Details

Classification Payload
Mass 200.00 kg
Dry Mass 200.00 kg
Total Mass 200.00 kg
Length 0.90 m
Diameter 0.40 m
Span 10.00 m
Shape Box + Ant
Manufacturer MM
Bus Type NOSS SSU
Phase Status In Orbit
Owner/State NRO/NRL/US

Most Searched